Presure
160 164 163 199 158 169 204 211 171 187 184 184 198 184 200 195 202 227 195 221 213 155 144 184 205 189 171
210 143 213 209 212 210 199 200 200 187 191 187 198 192 204 212 210 237 226 221 210 133 209 161 207 198 165
199 204 211 174 173 204 201 203 195 181 200 202 203 207 205 212 246 230 226 214 137 143 161 203 204 191 184
210 210 214 192 192 194 188 185 198 193 202 225 203 211 159 241 231 184 218 150 203 188 200 185 176 155 182
207 203 211 191 198 191 195 209 201 208 254 213 241 242 191 164 227 165 145 208 186 177 196 203 180 157 165
154 152 201 202 204 205 197 201 200 218 226 230 232 232 227 145 176 151 149 170 201 198 175 195 181 167 170
175 164 160 154 178 194 196 161 196 239 192 195 200 216 221 193 151 148 159 188 176 182 181 167 171 173 181
172 175 172 169 188 160 157 179 177 211 209 194 152 148 152 151 157 178 180 176 174 171 174 172 181 181 185
198 190 184 177 172 164 184 161 159 160 159 162 161 163 175 197 189 181 180 168 171 179 178 179 183 188 181
183 195 193 189 177 176 173 164 169 170 168 169 168 173 169 172 171 178 169 173 178 177 181 186 187 183 189
179 180 184 192 187 181 177 174 172 169 165 170 162 167 170 171 173 173 181 182 183 188 189 187 189 182 196
188 183 179 181 189 189 187 185 178 181 180 179 176 174 179 180 181 182 182 187 188 188 183 191 186 192 176
196 192 196 182 181 182 185 190 191 189 189 188 189 187 187 186 184 189 189 185 187 194 187 198 189 186 188
212 202 195 189 189 185 182 188 185 186 188 186 189 184 190 188 191 190 194 196 190 192 196 190 190 173 183
213 221 215 204 193 195 195 196 190 182 181 182 180 180 181 181 180 187 190 192 188 173 189 188 172 191 193
209 211 209 209 209 218 215 201 208 194 190 195 189 181 182 180 177 176 172 174 195 170 195 199 209 204 209
205 206 224 219 214 210 210 206 202 218 208 205 201 197 197 192 182 185 194 193 187 205 174 202 210 220 222
Wind_Speed
77 74 74 85 70 73 82 79 75 74 73 75 74 73 76 75 75 73 69 68 67 69 74 70 68 71 77
89 79 89 87 83 82 79 77 75 73 75 76 75 74 76 77 76 73 71 68 67 72 68 76 68 70 80
87 87 87 83 81 81 80 78 75 73 80 84 83 82 77 81 74 73 70 69 75 78 77 71 72 73 75
93 88 89 84 81 82 78 76 78 77 88 92 86 88 72 76 74 73 71 76 70 72 71 72 79 85 80
92 90 91 87 88 84 81 85 82 87 82 87 77 75 73 72 73 76 79 71 73 75 74 75 80 87 87
89 92 89 90 91 90 84 87 85 95 88 84 79 76 76 78 77 80 80 78 72 73 80 76 81 87 87
87 89 89 92 87 87 85 80 85 86 80 81 80 78 76 78 82 83 82 74 80 79 80 89 89 89 89
95 92 91 90 92 88 87 86 86 91 87 84 83 83 83 84 84 82 82 82 84 87 88 90 89 90 91
103 100 95 92 91 90 90 88 87 86 84 83 87 86 84 81 82 84 84 89 89 89 90 91 91 92 93
98 101 98 96 95 93 93 91 89 87 88 87 88 88 88 89 90 89 91 91 92 92 94 93 92 95 96
102 100 98 101 97 97 96 95 93 92 91 90 89 93 92 91 95 95 93 93 95 95 94 94 95 96 100
109 106 104 102 102 100 100 99 98 96 95 94 95 96 94 95 97 98 97 97 97 96 97 99 98 100 100
114 112 112 105 103 103 102 101 99 99 97 97 98 97 96 97 99 99 100 100 101 101 99 103 101 103 104
119 115 111 109 108 105 104 104 101 99 100 98 99 96 99 100 101 101 104 104 103 104 104 104 105 105 106
115 116 116 114 110 109 108 107 106 104 103 102 101 101 101 101 101 103 104 105 104 103 106 108 108 109 113
113 113 113 112 112 113 113 111 110 109 107 105 105 107 105 104 104 106 107 107 109 107 111 116 117 115 119
113 113 112 113 113 113 113 112 111 112 111 110 110 109 107 106 109 111 112 110 111 115 113 115 119 121 119
Wind_Direction
269 271 271 276 274 280 281 285 284 287 290 290 292 294 296 297 299 300 300 299 300 305 306 306 304 306 310
269 269 274 277 280 281 282 282 285 285 287 288 291 291 295 298 298 298 297 297 298 307 302 306 303 305 308
271 272 276 272 272 280 281 285 286 283 289 291 293 295 295 298 295 297 296 297 303 303 303 304 304 306 304
272 274 276 274 276 278 278 280 285 286 289 288 291 292 289 291 293 294 293 298 299 301 303 302 306 310 308
272 273 275 274 276 277 280 285 285 286 285 287 285 286 287 289 290 294 296 296 299 299 302 302 305 308 308
259 262 273 274 277 278 281 283 284 288 286 286 286 287 288 290 291 293 295 296 298 300 297 301 299 303 305
262 260 261 264 270 275 278 274 281 281 283 284 285 286 287 289 291 293 295 294 294 295 296 298 300 302 304
261 263 263 264 271 267 269 276 276 280 280 283 282 285 286 288 291 291 291 292 295 294 295 298 300 303 304
266 265 266 266 267 268 276 270 273 276 278 280 281 284 287 287 288 289 291 292 294 294 296 298 301 302 304
261 265 267 267 266 268 269 270 273 276 277 280 282 284 285 287 288 289 289 292 292 294 296 299 302 302 304
259 261 264 267 267 267 269 271 272 274 276 279 281 282 284 286 287 287 289 290 292 293 296 299 299 301 303
259 260 261 263 265 267 269 270 272 274 276 278 279 281 283 284 286 287 288 290 292 295 297 297 299 301 300
257 258 260 262 264 266 267 269 271 273 275 278 279 280 282 283 284 286 288 291 293 294 296 296 298 298 299
258 259 260 261 262 264 267 268 270 272 273 274 277 279 280 282 284 286 288 290 291 293 295 296 296 296 298
257 259 261 262 262 264 266 268 269 270 272 273 275 277 279 281 283 285 287 289 290 292 293 293 294 297 298
256 258 260 261 263 266 266 267 269 269 272 273 274 276 279 282 283 284 285 287 290 291 292 293 296 296 297
255 257 261 262 263 263 265 267 268 271 271 272 273 276 279 280 281 282 284 287 287 290 290 293 294 296 297